www.pogodaiklimat.ru

Погода и климат >> Архив погоды >> Германия >> Майнинген


ПОГОДА в Майнингене

  • Прогноз погоды в Майнингене
  • Монитор погоды в Майнингене

АРХИВ ПОГОДЫ в Майнингене

Время (UTC), дата Ветер
(напр.,м/с)
 
Видим.   Явления Облачность Т
(С)
Тd
(С)
f
(%)
Тe
(С)
Тes
(С)
Комфортность P
(гПа)
Po
(гПа)
Тmin
(С)
Tmax
(С)
R
(мм)
R24
(мм)
S
(см)
16 18.06 Ю 1-2
{5}
55 км 9/0
[]
+26.2 +9.1 34 +27 +30 жарко 1012.5 962.0
17 18.06 Ю 2 50 км 10/0
[]
+26.1 +9.9 36 +27 +28 жарко 1012.2 961.7
18 18.06 ЮЗ 2 >70 км 10/0
[]
+25.1 +11.2 42 +26 +27 жарко 1012.2 961.6 +18.9 +26.9
19 18.06 З 1 55 км 10/0
[]
+23.7 +12.7 50 +26 +26 жарко 1012.2 961.4
20 18.06 СВ 1 65 км 10/0
[]
+22.0 +12.1 53 +24 +24 комфорт 1012.7 961.5
21 18.06 С 1 60 км 9/0
[]
+20.8 +13.0 61 +24 +24 комфорт 1012.5 961.2
22 18.06 С 1 50 км 10/0
[]
+19.6 +13.1 66 +22 +22 комфорт 1012.7 961.2
23 18.06 С 1 55 км 10/0
[]
+18.2 +13.1 72 +20 +20 1012.9 961.1
00 19.06 Ю 1 50 км 10/0
[]
+17.8 +13.3 75 +19 +19 1012.6 960.8
01 19.06 Ю 2 50 км 4/0
[]
+16.9 +12.8 77 +17 +17 1012.4 960.4
02 19.06 Ю 1 50 км 8/0 2000 м
[]
+16.1 +12.7 80 +17 +17 1012.2 960.1
03 19.06 Ю 2 45 км 10/0
[]
+15.4 +12.3 82 +15 +15 1012.0 959.8
04 19.06 Ю 2-2
{3}
50 км 10/0
[]
+15.9 +12.4 80 +16 +16 1011.9 959.8
05 19.06 Ю 1 40 км 10/0
[]
+16.9 +12.1 73 +18 +19 1011.8 959.8
06 19.06 ЮВ 2 55 км 10/0
[]
+18.9 +12.8 68 +20 +22 1011.5 959.9 +15.3 +25.1
07 19.06 ЮВ 3-4
{4}
50 км 9/0
[]
+20.6 +13.4 63 +23 +27 комфорт 1010.9 959.6
08 19.06 ЮВ 3-5
{5}
50 км 3/0
[]
+21.7 +14.2 62 +25 +32 комфорт 1010.3 959.3
09 19.06 Ю 3 50 км 6/0
[]
+24.0 +14.2 54 +26 +34 жарко 1009.8 959.2
10 19.06 Ю 3-5
{6}
50 км 10/0
[]
+25.0 +13.8 50 +27 +34 жарко 1009.6 959.1
11 19.06 Ю 4-6
{8}
>70 км 5/0
[]
+26.4 +13.7 46 +29 +37 жарко 1009.3 959.1
12 19.06 Ю 5-8
{9}
>70 км ясно +27.3 +12.8 41 +29 +38 жарко 1009.0 958.9
13 19.06 Ю 6-9
{10}
>70 км ясно +27.7 +12.4 39 +29 +35 жарко 1008.4 958.4
14 19.06 Ю 4-8
{9}
45 км ясно +28.1 +13.7 41 +30 +38 жарко 1007.7 957.8
15 19.06 Ю 5-8
{10}
55 км ясно +28.0 +13.3 40 +30 +34 жарко 1007.3 957.4
16 19.06 Ю 5-7
{8}
60 км ясно +28.3 +12.7 38 +30 +33 жарко 1006.6 956.8
17 19.06 Ю 4-6
{7}
>70 км 3/0
[]
+27.8 +12.1 38 +29 +31 жарко 1006.6 956.7
18 19.06 Ю 4 50 км ясно +27.0 +10.3 35 +28 +28 жарко 1006.8 956.7 +18.8 +28.4
19 19.06 Ю 3-4
{6}
>70 км ясно +25.3 +11.2 41 +27 +27 жарко 1007.4 957.0
20 19.06 ЮЗ 2 >70 км 10/0
[]
+24.0 +12.2 48 +26 +26 жарко 1008.0 957.4
21 19.06 ЮВ 2 >70 км 10/0
[]
+22.3 +12.8 55 +25 +25 комфорт 1008.0 957.1
22 19.06 ЮЗ 3 65 км 6/0
[]
+22.8 +12.5 52 +26 +26 жарко 1008.3 957.5
23 19.06 ЮЗ 2-3
{4}
60 км 8/0
[]
+21.6 +12.2 55 +24 +24 комфорт 1008.3 957.3
00 20.06 ЮЗ 2 55 км 6/0
[]
+20.3 +12.2 60 +23 +23 комфорт 1008.7 957.5
01 20.06 ЮЗ 1 60 км 9/0
[]
+18.4 +13.1 71 +20 +20 1009.4 957.8
02 20.06 З 1 50 км 10/0 2000 м
[]
+19.4 +12.8 66 +22 +22 комфорт 1009.6 958.2
03 20.06 ЮЗ 2 40 км слаб. дождь {морось} 9/9 960 м
[]
+15.4 +13.7 90 +15 +15 1011.6 959.4 4
04 20.06 Ю 2 40 км в посл. час дождь {морось} 10/10 800 м
[]
+14.8 +14.0 95 +14 +14 1012.0 959.7
05 20.06 Ю 2 40 км 9/9 240 м
[]
+15.0 +14.1 94 +15 +15 1012.5 960.2
06 20.06 Ю 4 35 км {дождь, морось} 6/6 100 м
[]
+15.8 +14.4 91 +15 +16 1012.1 960.0 +14.6 +27.0 4
07 20.06 Ю 3-5
{6}
50 км 6/0
[]
+17.1 +14.1 83 +17 +21 1012.1 960.2
08 20.06 Ю 3-5
{6}
55 км 6/6 400 м
[]
+18.0 +14.3 79 +18 +22 1012.1 960.3
09 20.06 Ю 4 45 км 9/0
[]
+19.6 +15.4 77 +22 +27 комфорт 1011.7 960.3
10 20.06 Ю 4 60 км 9/9 660 м
[]
+20.5 +14.8 70 +23 +24 комфорт 1011.7 960.4
11 20.06 Ю 4 >70 км 9/9 900 м
[]
+21.5 +13.6 61 +24 +25 комфорт 1011.8 960.6
12 20.06 Ю 3 45 км 8/8 1110 м
[]
+22.3 +13.3 57 +25 +28 комфорт 1011.5 960.5
13 20.06 ЮЗ 4 >70 км 8/8 1350 м
[]
+23.9 +12.0 47 +26 +28 жарко 1011.0 960.2
14 20.06 З 4 60 км 10/0 2000 м
[]
+22.3 +11.3 50 +24 +29 комфорт 1011.4 960.3
15 20.06 ЮЗ 2 >70 км 9/0
[]
+22.7 +11.1 48 +25 +30 комфорт 1010.8 959.8
16 20.06 Ю 4 60 км 9/9 1410 м
[]
+22.3 +12.3 53 +25 +25 комфорт 1011.0 960.0
17 20.06 З 1 55 км в посл. час дождь {морось} 9/9 270 м
[]
+19.4 +14.9 75 +22 +22 комфорт 1011.8 960.3
18 20.06 ЮВ 4 30 км слаб. морось с дождем 9/9 1000 м
[]
+17.5 +14.8 84 +17 +17 1012.7 960.8 +15.8 +24.2 4
19 20.06 ЮВ 3 >70 км в посл. час дождь {морось} 9/0 2000 м
[]
+17.4 +14.1 81 +17 +17 1013.7 961.8
20 20.06 Ю 1-1
{2}
55 км 3/0 2000 м
[]
+16.3 +14.8 91 +17 +17 1014.4 962.2
21 20.06 ЮЗ 1 30 км {дождь, морось} 10/0 2000 м
[]
+14.9 +14.2 96 +15 +15 1014.9 962.5 0.1
22 20.06 З 2 >70 км 5/0
[]
+15.8 +12.0 78 +16 +16 1015.0 962.7
23 20.06 Ю 1 2700 м в посл. час туман {дымка} 8/8 <50 м
[]
+13.8 +13.6 99 +14 +14 1015.8 963.1
00 21.06 В 1 20 км в посл. час туман {дождь} 10/0 2000 м
[]
+13.7 +13.2 97 +14 +14 1016.1 963.4
01 21.06 ЮЗ 1-1
{2}
3900 м в посл. час туман {дымка} 5/5 <50 м
[]
+13.1 +13.0 99 +13 +13 1016.4 963.5
02 21.06 ЮВ 1 1800 м в посл. час туман {дымка} 5/5 600 м
[]
+12.4 +12.3 99 +12 +12 1016.8 963.8
03 21.06 С 1 10 км в посл. час туман {дымка} 3/3 <50 м
[]
+12.5 +12.4 99 +12 +12 1016.7 963.7
04 21.06 СЗ 2 16 км 9/9 570 м
[]
+13.3 +12.7 96 +12 +12 1017.2 964.3
05 21.06 С 1-1
{3}
15 км в посл. час туман {дымка} 9/0
[]
+13.8 +13.0 95 +14 +15 1017.3 964.5
06 21.06 СЗ 2 17 км {туман, дымка} 6/6 200 м
[]
+15.0 +13.3 90 +15 +16 1017.7 965.1 +11.8 +19.0 0.1
07 21.06 С 3 25 км 8/8 240 м
[]
+16.4 +12.8 79 +16 +17 1017.6 965.3
08 21.06 С 2 45 км 4/4 600 м
[]
+18.2 +12.1 68 +19 +25 1017.7 965.6
09 21.06 СВ 1 35 км 9/9 800 м
[]
+19.3 +12.5 65 +22 +23 комфорт 1017.4 965.6
10 21.06 С 3 55 км 9/9 840 м
[]
+18.6 +12.3 67 +19 +21 1018.1 966.1
11 21.06 В 1 >70 км 6/6 1000 м
[]
+19.8 +11.3 58 +22 +31 комфорт 1017.7 965.9
12 21.06 ЮЗ 2 50 км 1/0 2000 м
[]
+20.9 +10.6 52 +23 +40 комфорт 1017.3 965.7
13 21.06 СЗ 1-1
{3}
60 км 9/9 1260 м
[]
+20.4 +9.5 50 +23 +25 комфорт 1017.4 965.7
14 21.06 С 3 65 км 9/9 1260 м
[]
+20.8 +11.2 54 +23 +24 комфорт 1017.1 965.5
15 21.06 С 3-6
{6}
60 км ясно +21.4 +10.6 50 +23 +31 комфорт 1017.0 965.5
16 21.06 С 2-3
{5}
50 км 3/0
[]
+20.6 +11.1 54 +23 +28 комфорт 1017.0 965.4
17 21.06 СЗ 2 55 км 9/0 2000 м
[]
+20.0 +11.6 58 +22 +24 комфорт 1017.1 965.4
18 21.06 СЗ 4 55 км 1/1 1500 м
[]
+20.5 +10.2 52 +22 +23 комфорт 1017.4 965.7 +15.0 +21.9
19 21.06 С 4-5
{5}
50 км 9/9 1500 м
[]
+19.1 +11.0 59 +20 +20 1018.2 966.3
20 21.06 С 3-5
{5}
50 км 5/0 2000 м
[]
+17.4 +11.6 69 +17 +17 1019.4 967.1
21 21.06 С 3-4
{5}
60 км ясно +16.2 +11.2 72 +16 +16 1019.9 967.4
22 21.06 С 4-5
{5}
45 км 3/3 1500 м
[]
+15.8 +11.1 74 +15 +15 1020.4 967.8
23 21.06 СЗ 4-6
{6}
50 км ясно +15.5 +10.8 74 +15 +15 1020.6 967.9
00 22.06 С 3 45 км 8/8 1500 м
[]
+15.3 +10.7 74 +15 +15 1020.7 968.0
01 22.06 С 3 45 км 9/9 1500 м
[]
+14.9 +10.6 75 +14 +14 1020.8 968.0
02 22.06 СЗ 3-3
{4}
40 км 3/3 1500 м
[]
+14.6 +10.1 74 +14 +14 1020.9 968.0
03 22.06 С 3-4
{5}
40 км ясно +14.0 +9.6 75 +13 +13 1020.8 967.8
04 22.06 С 3-4
{6}
55 км 4/4 1500 м
[]
+14.7 +9.5 71 +14 +14 1020.5 967.6
05 22.06 С 3-5
{6}
35 км ясно +16.0 +9.5 65 +16 +17 1020.3 967.7
06 22.06 С 3 55 км 1/1 1500 м
[]
+17.2 +10.2 63 +17 +20 1020.0 967.6 +13.6 +20.5
07 22.06 С 3-7
{7}
45 км 1/1 1500 м
[]
+19.1 +10.9 59 +20 +25 1019.7 967.7
08 22.06 СВ 6-10
{10}
50 км ясно +20.2 +10.7 54 +21 +26 комфорт 1019.4 967.6
09 22.06 СВ 7 60 км 9/9 1500 м
[]
+20.5 +11.5 56 +22 +22 комфорт 1019.0 967.3
10 22.06 В 6-9
{10}
60 км 3/0 2000 м
[]
+22.2 +11.9 52 +25 +30 комфорт 1018.7 967.3
11 22.06 В 6 35 км 4/4 1260 м
[]
+22.6 +12.3 52 +25 +29 комфорт 1018.3 967.0
12 22.06 СВ 6 45 км 4/4 1500 м
[]
+23.5 +12.8 51 +26 +30 жарко 1017.4 966.3
13 22.06 СВ 5 35 км 4/4 1320 м
[]
+23.9 +12.4 49 +26 +31 жарко 1017.1 966.0
14 22.06 СВ 5 60 км 9/9 1500 м
[]
+23.0 +13.2 54 +26 +27 жарко 1017.0 965.8
15 22.06 В 6 60 км 9/9 1320 м
[]
+21.6 +13.2 59 +24 +25 комфорт 1017.2 965.8
16 22.06 СВ 7 60 км 10/0
[]
+20.5 +13.2 63 +22 +23 комфорт 1017.4 965.8
17 22.06 СВ 5 55 км 9/0
[]
+20.8 +13.5 63 +23 +24 комфорт 1017.0 965.5
18 22.06 СВ 4 50 км 9/0 2000 м
[]
+20.5 +13.9 66 +23 +23 комфорт 1017.5 965.9 +17.2 +24.5
19 22.06 СВ 4 55 км 9/0
[]
+20.1 +13.2 64 +22 +22 комфорт 1017.4 965.7
20 22.06 СВ 3 65 км 10/0
[]
+18.7 +13.1 70 +20 +20 1017.9 965.9
21 22.06 С 3 65 км 9/0 2000 м
[]
+18.1 +12.9 72 +18 +18 1018.4 966.3
22 22.06 СВ 3 >70 км 9/0 2000 м
[]
+17.6 +12.3 71 +18 +18 1018.5 966.3
23 22.06 СВ 4-5
{5}
65 км 1/0
[]
+17.0 +12.0 72 +17 +17 1018.7 966.4
00 23.06 СВ 4 50 км 8/0
[]
+17.1 +11.9 71 +17 +17 1018.8 966.5
01 23.06 СВ 3 65 км 10/0 2000 м
[]
+17.2 +11.9 71 +17 +17 1018.8 966.5
02 23.06 С 3 60 км 10/0 2000 м
[]
+17.1 +11.7 71 +17 +17 1018.9 966.6
03 23.06 С 2 60 км 10/10 1500 м
[]
+17.0 +11.5 70 +17 +17 1018.9 966.6
04 23.06 СЗ 3-4
{4}
65 км 10/0 2000 м
[]
+16.4 +11.5 73 +16 +16 1019.3 966.8
05 23.06 СЗ 3 55 км 10/0 2000 м
[]
+16.4 +11.3 72 +16 +17 1019.6 967.1
06 23.06 СВ 4 >70 км 8/0
[]
+19.3 +11.3 60 +20 +22 1019.3 967.3 +16.1 +20.7
07 23.06 В 3-5
{5}
>70 км {морось} 9/0
[]
+21.2 +10.0 49 +23 +26 комфорт 1019.2 967.5
08 23.06 СВ 6 55 км 5/0
[]
+22.3 +8.6 41 +24 +27 комфорт 1019.1 967.6
09 23.06 СВ 8 60 км ясно +22.4 +9.5 44 +24 +26 комфорт 1019.2 967.7
10 23.06 В 6-8
{11}
50 км ясно +23.3 +9.4 41 +25 +31 комфорт 1019.1 967.8
11 23.06 В 5-8
{8}
>70 км ясно +24.1 +9.2 39 +25 +34 комфорт 1018.9 967.7
12 23.06 СВ 4-8
{11}
50 км ясно +24.9 +10.4 40 +26 +38 жарко 1018.6 967.6
13 23.06 СВ 5-7
{8}
23 км ясно +25.4 +10.1 38 +26 +34 жарко 1018.4 967.5
14 23.06 СВ 3-6
{8}
45 км ясно +25.5 +10.2 38 +26 +37 жарко 1018.1 967.2
15 23.06 В 3 60 км 8/0 2000 м
[]
+25.9 +11.2 40 +27 +32 жарко 1017.8 967.0
16 23.06 ЮВ 4 >70 км 9/9 1500 м
[]
+24.2 +14.0 53 +27 +27 жарко 1018.0 967.0
17 23.06 В 3-5
{5}
60 км 4/0
[]
+25.2 +13.7 49 +27 +29 жарко 1017.7 966.9
18 23.06 В 3 >70 км 3/3 1500 м
[]
+25.0 +13.2 48 +27 +28 жарко 1018.2 967.3 +19.2 +26.7
19 23.06 В 3-4
{7}
55 км ясно +22.4 +13.3 56 +25 +25 комфорт 1018.9 967.5
20 23.06 В 3-4
{4}
55 км ясно +21.4 +13.7 61 +24 +24 комфорт 1019.6 968.0
21 23.06 В 2-3
{7}
60 км ясно +21.0 +13.5 62 +24 +24 комфорт 1020.1 968.4
22 23.06 В 2 >70 км 4/0
[]
+20.0 +13.1 64 +22 +22 комфорт 1020.8 968.9
23 23.06 СВ 1-2
{2}
65 км 9/0
[]
+19.1 +12.9 67 +21 +21 комфорт 1021.4 969.3
00 24.06 В 1 60 км 3/0
[]
+18.0 +12.6 71 +19 +19 1021.9 969.6
01 24.06 ЮВ 2-3
{3}
55 км 6/0
[]
+18.2 +12.7 70 +19 +19 1022.0 969.7
02 24.06 ЮВ 2 50 км 10/0
[]
+17.4 +12.6 73 +18 +18 1021.8 969.4
03 24.06 В 1 60 км 4/0
[]
+17.3 +12.7 74 +18 +18 1021.9 969.5
04 24.06 В 1-2
{2}
45 км 1/0
[]
+17.8 +12.4 71 +19 +19 1022.1 969.8
05 24.06 ЮВ 1 50 км 9/0
[]
+18.8 +12.5 67 +21 +22 комфорт 1022.2 970.0
06 24.06 ЮВ 2 55 км ясно +20.5 +12.9 62 +23 +27 комфорт 1022.0 970.1 +15.5 +25.1
07 24.06 ЮВ 3-4
{6}
55 км 1/0
[]
+21.4 +12.9 58 +24 +29 комфорт 1021.8 970.1
08 24.06 Ю 3-5
{5}
60 км ясно +23.1 +13.6 55 +26 +35 жарко 1021.3 969.9
09 24.06 ЮВ 4 65 км ясно +24.6 +12.7 47 +26 +36 жарко 1020.8 969.7
10 24.06 ЮВ 4-6
{7}
55 км 1/0
[]
+25.1 +12.2 45 +27 +37 жарко 1020.5 969.5
11 24.06 ЮВ 3-6
{7}
50 км ясно +26.2 +13.2 45 +28 +43 жарко 1020.1 969.3
12 24.06 Ю 3-5
{8}
60 км ясно +27.0 +12.3 40 +28 +43 жарко 1019.9 969.2
13 24.06 ЮВ 3-7
{7}
60 км 1/1 1500 м
[]
+27.3 +12.1 39 +29 +40 жарко 1019.6 969.0
14 24.06 ЮВ 3-5
{7}
45 км ясно +27.8 +11.5 36 +29 +39 жарко 1019.3 968.8
15 24.06 ЮВ 4-6
{7}
65 км ясно +28.2 +11.5 35 +29 +35 жарко 1019.0 968.5
16 24.06 ЮВ 4-6
{7}
>70 км 4/0
[]
+28.5 +11.5 35 +29 +32 жарко 1018.8 968.4
17 24.06 ЮВ 4-7
{7}
65 км 5/0
[]
+28.1 +12.0 37 +29 +31 жарко 1018.7 968.2
18 24.06 Ю 2 30 км 8/0
[]
+27.7 +12.3 38 +29 +29 жарко 1018.7 968.2 +20.4 +28.9
19 24.06 Ю 2-3
{3}
55 км 4/0
[]
+26.5 +13.2 44 +28 +28 жарко 1019.1 968.4
20 24.06 СВ 1 60 км 10/0
[]
+23.4 +13.7 54 +27 +27 душно 1020.0 968.7
21 24.06 СВ 2 >70 км 10/0
[]
+22.7 +11.7 50 +25 +25 комфорт 1020.5 969.1
22 24.06 В 3-4
{5}
60 км 9/0
[]
+22.1 +10.8 49 +24 +24 комфорт 1020.8 969.2
23 24.06 ЮВ 2-3
{4}
>70 км 9/0
[]
+20.7 +11.1 54 +23 +23 комфорт 1021.2 969.4
00 25.06 ЮВ 2 60 км ясно +20.4 +11.4 56 +23 +23 комфорт 1021.1 969.2
01 25.06 ЮВ 3-3
{3}
>70 км ясно +19.0 +11.3 61 +20 +20 1021.2 969.1
02 25.06 ЮВ 2 55 км 9/0
[]
+18.5 +11.4 63 +20 +20 1021.0 968.8
03 25.06 ЮВ 1 65 км 10/0
[]
+18.9 +11.6 63 +21 +21 комфорт 1020.8 968.7
04 25.06 Ю 2 65 км 9/0
[]
+19.0 +11.8 63 +20 +21 1020.8 968.7
05 25.06 ЮВ 2 45 км 9/0
[]
+19.6 +12.7 64 +22 +22 комфорт 1020.9 968.9
06 25.06 ЮВ 3 >70 км 9/0
[]
+21.3 +13.7 62 +24 +26 комфорт 1020.7 969.1 +18.4 +27.8
07 25.06 ЮВ 3-4
{4}
60 км 5/0
[]
+22.6 +14.3 59 +26 +30 жарко 1020.7 969.3
08 25.06 ЮВ 4-6
{7}
50 км 3/0
[]
+24.7 +15.1 55 +28 +34 душно 1020.2 969.2
09 25.06 ЮВ 4 60 км 9/0
[]
+25.8 +14.3 49 +28 +33 жарко 1020.1 969.2
10 25.06 ЮВ 3-5
{7}
60 км 1/0
[]
+26.8 +14.4 47 +29 +42 жарко 1020.0 969.3
11 25.06 В 4-7
{7}
45 км ясно +27.5 +13.7 43 +30 +41 жарко 1019.8 969.2
12 25.06 Ю 3 55 км 4/0
[]
+29.3 +14.0 39 +31 +43 жарко 1019.4 969.1
13 25.06 Ю 4-6
{7}
65 км 6/0
[]
+29.5 +12.9 36 +31 +38 жарко 1019.2 969.0
14 25.06 Ю 3-5
{6}
>70 км ясно +30.3 +13.0 35 +32 +42 жарко 1019.0 968.9
15 25.06 Ю 3-5
{7}
50 км ясно +30.4 +12.5 33 +31 +39 жарко 1018.8 968.7
16 25.06 Ю 4-6
{6}
60 км 8/0
[]
+30.7 +13.4 35 +32 +34 жарко 1018.6 968.6
17 25.06 Ю 3 >70 км 5/0
[]
+30.4 +12.7 34 +31 +33 жарко 1018.6 968.5

 

Местоположение метеостанции Майнинген (Германия): широта 50.57 долгота 10.38 высота над уровнем моря 453 м.

В архиве по умолчанию представлена погода в Майнингене за последнюю неделю. Архивные данные за месяц целиком и за предыдущие месяцы, начиная с января 2011 года, Вы можете получить, выбрав интересующий диапазон дат из раскрывающегося списка и нажав кнопку "Ввод!".


*Определитесь, кто Вы:
робот инопланетянин человек

Внимание! Время в таблицах - всемирное. Для получения местного времени необходимо прибавить поправку, которая равна 1 ч.

Смотрите также архив погоды в соседних городах и на ближайших метеорологических станциях:

Погода в Шмюкке (Германия) (29 км)
Погода на Вассеркуппе (Германия) (31 км)
Погода в Бад-Киссингене (Германия) (46 км)
Погода в Айзенахе (Германия) (48 км)
Погода в Кобурге (Германия) (53 км)
Погода в Нойхаусе (Германия) (54 км)
Погода в Бад-Херсфельде (Германия) (57 км)
Погода в Биндерслебене (Германия) (62 км)
Погода на Хоэродскопфе (Германия) (82 км)
Погода в Бамберге (Германия) (86 км)

Пояснения к столбцам:

Ветер - указаны скорость ветра в м/с - средняя за 10 мин, порывы в срок и между сроками (в фигурных скобках) и направление, откуда дует ветер: С - северный, СВ - северо-восточный, В - восточный, ЮВ - юго-восточный, Ю - южный, ЮЗ - юго-западный, З - западный, СЗ - северо-западный.
Видимость - горизонтальная дальность видимости в метрах или километрах. При видимости от 1 до 10 км при отсутствии осадков обычно наблюдается дымка, при ухудшении видимости до 1 км и менее - туман. В сухую погоду видимость может ухудшаться дымом, пылью или мглою.
Явления - указаны атмосферные явления, наблюдавшиеся в срок или в последний час перед сроком; фигурными скобками обозначены явления, наблюдавшиеся между сроками (за 1-3 часа до срока); квадратными скобками обозначены град или гололедные отложения с указанием их диаметра в мм.
Облачность - указаны через наклонную черту общая и нижняя облачность в баллах и высота нижней границы облаков в метрах; квадратными скобками обозначены формы облаков: Ci - перистые, Cs - перисто-слоистые, Cc - перисто-кучевые, Ac - высококучевые, As - высокослоистые, Sc - слоисто-кучевые, Ns - слоисто-дождевые, Cu - кучевые, Cb - кучево-дождевые. Подробнее классификацию облаков см. в Атласе облаков (PDF).
T - Температура воздуха - температура, измеренная на высоте 2 м над землей.
Td - Температура точки росы - температура, при понижении до которой содержащийся в воздухе водяной пар достигнет насыщения.
f - Относительная влажность воздуха - влажноcть воздуха, измеренная на высоте 2 м над землей.
Te - Эффективная температура - температура, которую ощущает одетый по сезону человек в тени. Характеристика душности погоды. При расчете учитывается влияние влажности воздуха и скорости ветра на теплоощущения человека.
Tes - Эффективная температура на солнце - температура, которую ощущает человек, с поправкой на солнечный нагрев. Характеристика знойности погоды. Зависит от высоты солнца над горизонтом, облачности и скорости ветра. Ночью, в пасмурную погоду, а также при ветре 12 м/с и более поправка равна нулю.
P - Атмосферное давление - приведенное к уровню моря атмосферное давление.
Po - Атмосферное давление - измеренное на уровне метеостанции атмосферное давление.
Tmin - Минимальная температура - минимум температуры воздуха на высоте 2 м над землей.
Tmax - Максимальная температура - максимум температуры воздуха на высоте 2 м над землей.
R - Количество осадков - Количество выпавших осадков за период времени, мм. При наведении курсора мыши на число - период времени, за который выпало указанное количество осадков.
R24 - Количество осадков - Количество выпавших осадков за 24 часа, мм.
S - Снежный покров - Высота снежного покрова, см. При наведении курсора мыши на число - состояние снежного покрова и степень покрытия местности в баллах.